Simultaneous Nadir Overpasses (SNOs) Predictions

Prediction of SNOs between GOES-15 and TERRA Satellite Orbit:

Table of predicted SNOs for the next 14.0 days since TLE Epoch: 8/7/2021
Index Date Time (GOES-15) GOES-15 Lat,Lon TERRA Lat,Lon Distance(km) Time Diff (sec)
1 08/08/2021 18:44:35 -0.01,-128.02 -0.67,-124.83 362.01 80
2 08/09/2021 07:08:39 -0.02,-128.11 -0.41,-130.03 217.82 80
3 08/11/2021 06:53:46 -0.00,-128.14 0.23,-127.08 121.84 80
4 08/11/2021 19:17:40 0.03,-128.07 0.92,-132.22 472.30 80
5 08/13/2021 06:41:33 0.00,-128.18 0.88,-124.12 461.22 80
6 08/13/2021 19:05:27 0.03,-128.10 0.27,-129.27 132.95 80
7 08/15/2021 18:50:34 0.02,-128.12 -0.38,-126.32 205.72 80
8 08/16/2021 07:14:36 -0.05,-128.21 -0.76,-131.50 373.80 80
9 08/18/2021 07:02:23 -0.05,-128.23 -0.10,-128.55 36.16 80
10 08/20/2021 06:47:30 -0.04,-128.24 0.50,-125.58 300.96 80
11 08/20/2021 19:11:24 0.07,-128.15 0.60,-130.74 294.41 80
